User: anonymous   Login
Location: Unspecified
(0.0000°N, 0.0000°E)
Time: 15:42:12
(UTC+01:00)
Language:

Gurwin Techsat 1B - Orbit

View from above orbital plane
View from above orbital plane
View from above satellite
View from above satellite

Ground track
Ground track

The orbit data is extracted from the following two-line orbital elements,

1 25397U 98043D   15031.95330723  .00000080  00000-0  53953-4 0  5568
2 25397 098.5037 346.7960 0001598 050.2972 349.8212 14.23512191860410
Epoch (UTC): 31 January 2015 22:52:45
Eccentricity: 0.0001598
inclination: 98.5037°
perigee height: 812 km
apogee height: 814 km
right ascension of ascending node: 346.7960°
argument of perigee: 50.2972°
revolutions per day: 14.23512191
mean anomaly at epoch: 349.8212°
orbit number at epoch: 86041

The dashed part of the orbit path shows where the satellite is in the earth's shadow,  

DLR